#timestamp,LO_Frequency,Hit,StdDev 
1643223615.4,286047000.3,N
1643223635.2,286047001.1,N
1643223655.0,286047000.6,N
1643223655.9,286047000.6,N
1643223675.8,286047001.2,N
1643223695.6,286046998.8,N
1643223715.4,286046999.3,N
1643223735.3,286046999.1,N
1643223755.1,286046996.6,Y
1643223775.9,286046996.7,P
1643223795.7,286046999.1,N
1643223815.5,286046998.7,N
1643223835.4,286047000.8,N
1643223855.2,286047000.3,N
1643223875.0,286047001.0,N
1643223875.9,286047001.0,N
1643223895.8,286046999.3,N
1643223915.6,286047000.4,N
1643223935.5,286046998.2,N
1643223955.3,286046998.9,N
1643223975.1,286046998.7,N
1643223995.9,286046998.9,N
1643224015.7,286046999.0,N
1643224035.5,286046998.9,N
1643224055.4,286047000.3,N
1643224075.2,286047000.6,N
1643224095.1,286047001.6,N
1643224096.0,286047001.6,N
1643224115.8,286047002.4,N
1643224135.6,286046999.9,N
1643224155.5,286047000.1,N
1643224175.3,286047000.9,N
1643224195.1,286046998.9,N
1643224215.9,286047001.2,N
1643224235.7,286046998.3,N
1643224255.6,286047000.8,N
1643224275.4,286046998.3,N
1643224295.2,286047000.5,N
1643224315.1,286047000.0,N
1643224316.0,286047000.0,N
1643224335.8,286047001.1,N
1643224355.7,286047002.8,N
1643224375.5,286047000.1,N
1643224395.3,286047002.0,N
1643224415.2,286047002.6,N
1643224435.0,286047001.6,N
1643224435.9,286047001.6,N
1643224455.7,286047002.5,N
1643224475.6,286047002.4,N
1643224495.4,286047000.0,N
1643224515.3,286047002.8,N
1643224535.1,286047000.5,N
1643224536.0,286047000.5,N
1643224555.8,286047000.4,N
1643224575.7,286047002.7,N
1643224595.5,286047000.3,N
1643224615.3,286047001.0,N
1643224635.2,286047000.5,N
1643224655.0,286047000.9,N
1643224655.9,286047000.9,N
1643224675.8,286047000.7,N
1643224695.6,286047000.0,N
1643224715.4,286047002.6,N
1643224735.3,286047002.6,N
1643224755.1,286047000.3,N
1643224775.9,286047000.3,N
1643224795.7,286047000.5,N
1643224815.5,286046999.9,N
1643224835.4,286047002.3,N
1643224855.2,286047002.4,N
1643224875.0,286047001.6,N
1643224875.9,286047001.6,N
1643224895.8,286047002.4,N
1643224915.6,286047002.5,N
1643224935.5,286047000.9,N
1643224955.3,286047000.1,N
1643224975.1,286047002.2,N
1643224995.9,286047003.9,Y
1643225015.7,286046999.8,P
1643225035.6,286047000.5,N
1643225055.4,286047000.0,N
1643225075.2,286047000.2,N
1643225095.1,286047000.3,N
1643225096.0,286047000.3,N
1643225115.8,286046999.8,N
1643225135.7,286047002.0,Y
1643225155.5,286047002.2,P
1643225175.3,286047003.9,P
1643225195.2,286047012.7,P
1643225215.0,286047015.2,Y
1643225215.9,286047015.2,P
1643225235.8,286047022.2,P
1643225255.6,286047021.9,P
1643225275.4,286047026.4,Y
1643225295.3,286047005.8,P
1643225315.1,286046999.4,N
1643225335.9,286046995.7,N
1643225355.7,286046992.1,N
1643225375.5,286046988.7,N
1643225395.4,286046987.3,N
1643225415.2,286047004.5,N
1643225435.0,286047007.4,N
1643225435.9,286047007.4,N
1643225455.8,286047010.4,N
1643225475.6,286047007.9,N
1643225495.5,286047016.6,N
1643225515.3,286047018.9,N
1643225535.1,286047018.5,N
1643225555.9,286047010.9,N
1643225575.7,286047005.2,N
1643225595.6,286046999.4,N
1643225615.4,286046996.2,N
1643225635.2,286046991.7,N
1643225655.1,286046990.2,N
1643225656.0,286046990.2,N
1643225675.8,286046991.0,N
1643225695.6,286046989.5,N
1643225715.5,286046986.9,N
1643225735.3,286046988.2,N
1643225755.2,286046988.0,N
1643225775.0,286046986.7,N
1643225775.9,286046986.7,N
1643225795.8,286046983.9,N
1643225815.6,286046984.7,N
1643225835.4,286046982.4,N
1643225855.3,286046982.4,N
1643225875.1,286046982.3,N
1643225895.1,286046983.0,N
1643225896.0,286046983.0,N
1643225915.8,286046982.9,N
1643225935.6,286046982.4,N
1643225955.5,286046982.5,N
1643225975.3,286046982.7,N
1643225995.1,286046980.8,N
1643226015.9,286046981.9,N
1643226035.7,286046979.3,N
1643226055.6,286046979.6,N
1643226075.4,286046979.2,N
1643226095.2,286046980.0,N
1643226115.1,286046981.9,Y
1643226116.0,286046981.9,P
1643226135.8,286046997.7,N
1643226155.7,286046995.1,N
1643226175.5,286046996.1,N
1643226195.3,286046993.8,N
1643226215.2,286046993.3,N
1643226235.0,286046996.4,N
1643226235.9,286046996.4,N
1643226255.7,286046995.1,N
1643226275.6,286046993.6,N
1643226295.4,286046994.1,N
1643226315.3,286046993.7,N
1643226335.1,286046993.8,N
1643226355.8,286046993.7,N
1643226375.7,286046993.9,N
1643226395.5,286046993.9,N
1643226415.4,286046994.1,N
1643226435.2,286046995.9,N
1643226455.0,286046994.1,N
1643226455.9,286046994.1,N
1643226475.8,286046996.4,N
1643226495.6,286046995.9,N
1643226515.5,286046995.1,N
1643226535.3,286046997.4,N
1643226555.1,286046995.9,N
1643226575.9,286046995.6,N
1643226595.7,286046993.7,N
1643226615.5,286046994.3,N
1643226635.4,286046994.7,N
1643226655.2,286046993.7,N
1643226675.1,286046993.5,N
1643226676.0,286046993.5,Y
1643226695.8,286046998.3,P
1643226715.6,286047001.0,N
1643226735.5,286047001.1,N
1643226755.3,286046998.2,N
1643226775.1,286046999.5,N
1643226795.9,286046998.1,N
1643226815.7,286047000.9,N
1643226835.6,286046998.1,N
1643226855.4,286046998.2,N
1643226875.2,286047001.1,N
1643226895.1,286047000.4,N
1643226896.0,286047000.4,N
1643226915.8,286047002.4,N
1643226935.6,286047000.7,N
1643226955.5,286046999.8,N
1643226975.3,286047001.3,N
1643226995.2,286047001.5,N
1643227015.9,286047001.4,N
1643227035.7,286047001.5,N
1643227055.6,286047000.0,N
1643227075.4,286047000.3,N
1643227095.2,286046998.2,N
1643227115.1,286046998.2,N
1643227116.0,286046998.2,N
1643227135.8,286047001.2,N
1643227155.7,286046999.2,N
1643227175.5,286047001.1,N
1643227195.3,286047000.9,N
